Location: Austin
(30.3000°N, 97.7500°W)
Time: 10:25:09
(UTC-05:00)

Ariane Rocket - Pass Details

Date: 26 May 2023
Orbit: 759 x 768 km, 98.6° (Epoch: 30 May)

Event Time Altitude Azimuth Distance (km) Brightness Sun altitude
Exits shadow 22:20:54 39° 90° (E) 1,124 3.5 -21.6°
Maximum altitude 22:21:28 41° 73° (ENE) 1,098 3.5 -21.7°
Drops below altitude 10° 22:26:12 10° 4° (N) 2,303 6.0 -22.4°
Sets 22:28:37 0° 357° (N) 3,234 6.9 -22.8°
